Zurück zum Katalog

MIDAS 4 DEB

AktivPO
NORAD 27478·DEBRIS·🇺🇸 United States

Gestartet Oct 21, 1961 von Vandenberg Space Force Base

Loading…

Nächste Überflüge (nächste 24 Stunden)

TLE

AktuellSource: Space-Track

Epoche: Sep 11, 2026, 21:26 UTC

1 27478U 61028H   26254.89330720 -.00000015  00000-0 -49256-2 0  9992
2 27478  95.8521 236.3976 0262266 243.3471 138.6644  8.66661688598306

Verfolge MIDAS 4 DEB in Echtzeit mit AllMySat

Download on the App Store